• In Netherlands
  • List of Countries
  • For 7 days
  • Water Temperature
  • Satellite Maps
  • Weather Map
  • Weather Widgets
  • user-avatar
    Login

    Hourly Weather Yerevan

    Today, 18 November, Saturday

    Time Temperature Precipitation Wind Pressure Humidity
    00:00 +10°C° 0 mm 1 mps 692 mmHg 46%
    01:00 +9°C° 0 mm 1 mps 692 mmHg 46%
    02:00 +9°C° 0 mm 1 mps 692 mmHg 46%
    03:00 +9°C° 0 mm 1 mps 692 mmHg 47%
    04:00 +9°C° 0 mm 1 mps 692 mmHg 47%
    05:00 +8°C° 0 mm 1 mps 692 mmHg 48%
    06:00 +8°C° 0 mm 1 mps 692 mmHg 49%
    07:00 +10°C° 0 mm 1 mps 692 mmHg 45%
    08:00 +11°C° 0 mm 1 mps 693 mmHg 40%
    09:00 +13°C° 0 mm 1 mps 693 mmHg 36%
    10:00 +14°C° 0 mm 2 mps 693 mmHg 34%
    11:00 +15°C° 0 mm 2 mps 693 mmHg 31%
    12:00 +16°C° 0 mm 2 mps 693 mmHg 29%
    13:00 +16°C° 0 mm 3 mps 692 mmHg 29%
    14:00 +16°C° 0 mm 3 mps 692 mmHg 28%
    15:00 +16°C° 0 mm 3 mps 692 mmHg 28%
    16:00 +15°C° 0 mm 2 mps 692 mmHg 32%
    17:00 +13°C° 0 mm 2 mps 692 mmHg 36%
    18:00 +12°C° 0 mm 2 mps 691 mmHg 40%
    19:00 +10°C° 0 mm 2 mps 691 mmHg 41%
    20:00 +10°C° 0 mm 2 mps 692 mmHg 41%
    21:00 +10°C° 0 mm 2 mps 692 mmHg 42%
    22:00 +9°C° 0 mm 2 mps 692 mmHg 42%
    23:00 +9°C° 0 mm 2 mps 692 mmHg 43%

    Tomorrow, 19 November, Sunday

    Time Temperature Precipitation Wind Pressure Humidity
    00:00 +9°C° 0 mm 2 mps 692 mmHg 43%
    01:00 +9°C° 0 mm 2 mps 691 mmHg 43%
    02:00 +9°C° 0 mm 2 mps 691 mmHg 43%
    03:00 +9°C° 0 mm 2 mps 691 mmHg 43%
    04:00 +8°C° 0 mm 2 mps 691 mmHg 42%
    05:00 +8°C° 0 mm 2 mps 691 mmHg 42%
    06:00 +8°C° 0 mm 2 mps 690 mmHg 41%
    07:00 +10°C° 0 mm 2 mps 691 mmHg 38%
    08:00 +12°C° 0 mm 2 mps 691 mmHg 35%
    09:00 +14°C° 0 mm 2 mps 691 mmHg 31%
    10:00 +14°C° 0 mm 2 mps 691 mmHg 31%
    11:00 +15°C° 0 mm 2 mps 691 mmHg 31%
    12:00 +15°C° 0 mm 2 mps 691 mmHg 31%
    13:00 +15°C° 0.1 mm 2 mps 690 mmHg 34%
    14:00 +14°C° 0.1 mm 2 mps 690 mmHg 38%
    15:00 +14°C° 0.1 mm 2 mps 690 mmHg 41%
    16:00 +13°C° 0.1 mm 2 mps 690 mmHg 46%
    17:00 +12°C° 0.1 mm 2 mps 690 mmHg 50%
    18:00 +12°C° 0.1 mm 2 mps 690 mmHg 54%
    19:00 +10°C° 0.1 mm 2 mps 690 mmHg 55%
    20:00 +10°C° 0.1 mm 2 mps 690 mmHg 56%
    21:00 +10°C° 0.1 mm 2 mps 690 mmHg 57%
    22:00 +9°C° 0 mm 2 mps 690 mmHg 58%
    23:00 +9°C° 0 mm 2 mps 690 mmHg 58%

    Day after tomorrow, 20 November, Monday

    Time Temperature Precipitation Wind Pressure Humidity
    00:00 +8°C° 0 mm 2 mps 690 mmHg 58%
    01:00 +8°C° 0 mm 2 mps 690 mmHg 58%
    02:00 +8°C° 0 mm 2 mps 690 mmHg 59%
    03:00 +8°C° 0 mm 2 mps 689 mmHg 59%
    04:00 +8°C° 0 mm 2 mps 689 mmHg 60%
    05:00 +8°C° 0 mm 2 mps 689 mmHg 60%
    06:00 +7°C° 0 mm 2 mps 689 mmHg 61%
    07:00 +9°C° 0 mm 2 mps 689 mmHg 58%
    08:00 +10°C° 0 mm 2 mps 690 mmHg 54%
    09:00 +12°C° 0 mm 2 mps 690 mmHg 51%
    10:00 +12°C° 0 mm 3 mps 689 mmHg 49%
    11:00 +13°C° 0 mm 3 mps 689 mmHg 48%
    12:00 +14°C° 0 mm 3 mps 688 mmHg 46%
    13:00 +14°C° 0.1 mm 3 mps 688 mmHg 46%
    14:00 +14°C° 0.1 mm 3 mps 687 mmHg 46%
    15:00 +14°C° 0.1 mm 3 mps 687 mmHg 47%
    16:00 +13°C° 0.1 mm 3 mps 687 mmHg 51%
    17:00 +13°C° 0.1 mm 2 mps 687 mmHg 55%
    18:00 +10°C° 0.1 mm 2 mps 687 mmHg 59%
    19:00 +10°C° 0 mm 2 mps 687 mmHg 60%
    20:00 +10°C° 0 mm 2 mps 687 mmHg 61%
    21:00 +10°C° 0 mm 2 mps 686 mmHg 62%
    22:00 +10°C° 0.1 mm 2 mps 686 mmHg 63%
    23:00 +10°C° 0.1 mm 2 mps 686 mmHg 64%

    21 November, Tuesday

    Time Temperature Precipitation Wind Pressure Humidity
    00:00 +9°C° 0.1 mm 2 mps 686 mmHg 65%
    01:00 +9°C° 0 mm 2 mps 685 mmHg 66%
    02:00 +9°C° 0 mm 2 mps 685 mmHg 68%
    03:00 +9°C° 0 mm 2 mps 685 mmHg 69%
    04:00 +9°C° 0 mm 2 mps 684 mmHg 69%
    05:00 +9°C° 0 mm 2 mps 684 mmHg 70%
    06:00 +8°C° 0 mm 2 mps 684 mmHg 70%
    07:00 +10°C° 0 mm 2 mps 684 mmHg 67%
    08:00 +12°C° 0 mm 2 mps 684 mmHg 63%
    09:00 +13°C° 0 mm 2 mps 684 mmHg 59%
    10:00 +12°C° 0 mm 3 mps 684 mmHg 58%
    11:00 +13°C° 0 mm 3 mps 683 mmHg 57%
    12:00 +14°C° 0 mm 4 mps 683 mmHg 56%
    13:00 +14°C° 0 mm 4 mps 682 mmHg 57%
    14:00 +14°C° 0 mm 4 mps 682 mmHg 58%
    15:00 +14°C° 0 mm 4 mps 682 mmHg 59%
    16:00 +13°C° 0.1 mm 3 mps 682 mmHg 64%
    17:00 +12°C° 0.1 mm 3 mps 682 mmHg 69%
    18:00 +12°C° 0.1 mm 2 mps 682 mmHg 74%
    19:00 +12°C° 0 mm 2 mps 682 mmHg 75%
    20:00 +10°C° 0 mm 2 mps 682 mmHg 76%
    21:00 +10°C° 0 mm 2 mps 682 mmHg 77%
    22:00 +10°C° 0 mm 2 mps 682 mmHg 77%
    23:00 +9°C° 0 mm 2 mps 682 mmHg 77%

    22 November, Wednesday

    Time Temperature Precipitation Wind Pressure Humidity
    00:00 +9°C° 0 mm 2 mps 681 mmHg 77%
    01:00 +9°C° 0.1 mm 2 mps 681 mmHg 76%
    02:00 +9°C° 0.1 mm 2 mps 681 mmHg 75%
    03:00 +9°C° 0.1 mm 2 mps 681 mmHg 75%
    04:00 +9°C° 0.2 mm 2 mps 681 mmHg 75%
    05:00 +9°C° 0.2 mm 2 mps 681 mmHg 75%
    06:00 +9°C° 0.2 mm 2 mps 681 mmHg 75%
    07:00 +9°C° 0.7 mm 2 mps 682 mmHg 73%
    08:00 +10°C° 0.7 mm 2 mps 682 mmHg 70%
    09:00 +10°C° 0.7 mm 2 mps 682 mmHg 68%
    10:00 +10°C° 1.7 mm 3 mps 682 mmHg 72%
    11:00 +9°C° 1.7 mm 3 mps 682 mmHg 75%
    12:00 +8°C° 1.7 mm 3 mps 682 mmHg 79%
    13:00 +9°C° 1 mm 3 mps 682 mmHg 75%
    14:00 +9°C° 1 mm 2 mps 683 mmHg 72%
    15:00 +9°C° 1 mm 2 mps 683 mmHg 68%
    16:00 +8°C° 0.1 mm 2 mps 683 mmHg 70%
    17:00 +7°C° 0.1 mm 2 mps 684 mmHg 72%
    18:00 +6°C° 0.1 mm 2 mps 685 mmHg 75%
    19:00 +5°C° 0 mm 2 mps 685 mmHg 75%
    20:00 +6°C° 0 mm 1 mps 685 mmHg 76%
    21:00 +5°C° 0 mm 1 mps 686 mmHg 76%
    22:00 +5°C° 0.1 mm 1 mps 686 mmHg 75%
    23:00 +5°C° 0.1 mm 1 mps 686 mmHg 74%

    23 November, Thursday

    Time Temperature Precipitation Wind Pressure Humidity
    00:00 +5°C° 0.1 mm 1 mps 687 mmHg 73%
    01:00 +4°C° 0.1 mm 1 mps 687 mmHg 73%
    02:00 +4°C° 0.1 mm 1 mps 687 mmHg 72%
    03:00 +4°C° 0.1 mm 1 mps 687 mmHg 71%
    04:00 +3°C° 0 mm 1 mps 687 mmHg 71%
    05:00 +3°C° 0 mm 1 mps 688 mmHg 71%
    06:00 +3°C° 0 mm 1 mps 688 mmHg 71%
    07:00 +3°C° 0 mm 1 mps 688 mmHg 68%
    08:00 +4°C° 0 mm 1 mps 689 mmHg 65%
    09:00 +5°C° 0 mm 1 mps 689 mmHg 62%
    10:00 +6°C° 0 mm 1 mps 689 mmHg 59%
    11:00 +5°C° 0 mm 2 mps 689 mmHg 56%
    12:00 +6°C° 0 mm 2 mps 689 mmHg 53%
    13:00 +6°C° 0 mm 2 mps 689 mmHg 53%
    14:00 +6°C° 0 mm 2 mps 689 mmHg 52%
    15:00 +6°C° 0 mm 2 mps 689 mmHg 52%
    16:00 +6°C° 0.1 mm 2 mps 689 mmHg 55%
    17:00 +5°C° 0.1 mm 2 mps 690 mmHg 58%
    18:00 +4°C° 0.1 mm 2 mps 690 mmHg 61%
    19:00 +3°C° 0.1 mm 2 mps 691 mmHg 63%
    20:00 +3°C° 0.1 mm 2 mps 691 mmHg 64%
    21:00 +3°C° 0.1 mm 2 mps 691 mmHg 65%
    22:00 +2°C° 0.1 mm 2 mps 691 mmHg 66%
    23:00 +2°C° 0.1 mm 2 mps 691 mmHg 67%
    Show more